Date String (YYYY-MM-DD hh:mm:ss) UTC,Instrument flags,absolute air pressure of the measurement (hPa),sample flow rate (lpm),inlet stack bypass flow (lpm),air temperature of the measurement (°C),ambient temperature measured by the external sensor (°C),aerosol sample conditioner tube jacket temperature (°C),OPC LED temperature (°C),internal box temperature (°C),relative humidity of the measurement (%),span deviation,mass concentration of particles derived from Lorenz-Mie calculation of OPC scattering (μg/m³),mass concentration of particles derived from Lorenz-Mie calculation of OPC scattering (μg/m³),mass concentration of particles derived from Lorenz-Mie calculation of OPC scattering (μg/m³)
DateTimeUTC,F1_M11,P_M11,Q1_M11,Q2_M11,T1_M11,T2_M11,T3_M11,T4_M11,T5_M11,U1_M11,ZSPAN_M11,X0_M11,X2_M11,X1_M11
2024-03-10 11:00:00,SystemResetWarning,0828.3,5.01,000.00,018.3,017.3,000.0,026.9,020.0,10.4,0000.0,0008.77,0002.95,0002.10
2024-03-10 11:01:00,SystemResetWarning,0828.4,5.00,000.00,018.3,017.3,000.0,026.9,020.0,10.4,0000.0,0009.06,0002.92,0002.09
2024-03-10 11:02:00,SystemResetWarning,0828.3,4.99,000.00,018.2,017.2,000.0,026.9,020.0,10.3,0000.0,0009.38,0002.92,0002.09
2024-03-10 11:03:00,SystemResetWarning,0828.3,5.00,000.00,018.2,017.3,000.0,026.9,020.0,10.2,0000.0,0008.47,0002.92,0002.08
2024-03-10 11:04:00,SystemResetWarning,0828.3,5.00,000.00,018.2,017.3,000.0,026.9,020.0,10.2,0000.0,0008.83,0002.97,0002.05
2024-03-10 11:05:00,SystemResetWarning,0828.3,5.01,000.00,018.2,017.3,000.0,026.9,020.0,10.3,0000.0,0008.87,0003.01,0002.06
2024-03-10 11:06:00,SystemResetWarning,0828.3,5.01,000.00,018.2,017.3,000.0,026.9,020.0,10.2,0000.0,0008.73,0003.05,0002.08
2024-03-10 11:07:00,SystemResetWarning,0828.3,5.00,000.00,018.2,017.3,000.0,026.9,020.0,10.3,0000.0,0008.73,0003.07,0002.07
2024-03-10 11:08:00,SystemResetWarning,0828.3,5.00,000.00,018.2,017.3,000.0,026.9,020.0,10.3,0000.0,0008.17,0003.04,0002.05
2024-03-10 11:09:00,SystemResetWarning,0828.3,4.99,000.00,018.2,017.3,000.0,026.9,020.0,10.4,0000.0,0007.70,0003.02,0002.06
2024-03-10 11:10:00,SystemResetWarning,0828.4,5.00,000.00,018.3,017.7,000.0,027.0,020.2,10.4,0000.0,0007.77,0003.07,0002.07
2024-03-10 11:11:00,SystemResetWarning,0828.4,5.01,000.00,018.5,018.5,000.0,027.1,020.7,10.3,0000.0,0008.40,0003.10,0002.07
2024-03-10 11:12:00,SystemResetWarning,0828.4,4.98,000.00,018.7,018.8,000.0,027.1,020.9,10.1,0000.0,0008.42,0003.11,0002.07
2024-03-10 11:13:00,SystemResetWarning,0828.4,5.00,000.00,018.7,018.7,000.0,027.0,020.7,10.1,0000.0,0007.88,0003.11,0002.10
2024-03-10 11:14:00,SystemResetWarning,0828.3,5.01,000.00,018.7,018.5,000.0,027.0,020.6,10.1,0000.0,0007.93,0003.13,0002.12
2024-03-10 11:15:00,SystemResetWarning,0828.2,5.00,000.00,018.7,018.4,000.0,027.0,020.5,10.2,0000.0,0007.47,0003.12,0002.18
2024-03-10 11:16:00,SystemResetWarning,0828.3,5.00,000.00,018.6,018.2,000.0,027.0,020.4,10.2,0000.0,0007.45,0003.13,0002.26
2024-03-10 11:17:00,SystemResetWarning,0828.3,5.00,000.00,018.6,018.1,000.0,027.0,020.3,10.2,0000.0,0007.59,0003.16,0002.30
2024-03-10 11:18:00,SystemResetWarning,0828.3,5.00,000.00,018.6,018.0,000.0,027.0,020.2,10.2,0000.0,0007.93,0003.19,0002.38
2024-03-10 11:19:00,SystemResetWarning,0828.3,5.00,000.00,018.5,017.9,000.0,027.0,020.2,10.3,0000.0,0008.22,0003.31,0002.53
2024-03-10 11:20:00,SystemResetWarning,0828.3,5.00,000.00,018.5,017.8,000.0,027.0,020.2,10.4,0000.0,0008.79,0003.43,0002.70
2024-03-10 11:21:00,SystemResetWarning,0828.3,5.01,000.00,018.5,017.7,000.0,027.0,020.1,10.3,0000.0,0009.25,0003.54,0002.86
2024-03-10 11:22:00,SystemResetWarning,0828.3,5.00,000.00,018.4,017.7,000.0,027.0,020.1,10.3,0000.0,0008.85,0003.60,0003.01
2024-03-10 11:23:00,SystemResetWarning,0828.3,4.99,000.00,018.4,017.7,000.0,027.0,020.1,10.1,0000.0,0008.88,0003.70,0003.13
2024-03-10 11:24:00,SystemResetWarning,0828.2,4.99,000.00,018.4,017.6,000.0,027.0,020.1,10.0,0000.0,0009.31,0003.78,0003.20
2024-03-10 11:25:00,SystemResetWarning,0828.3,5.00,000.00,018.4,017.6,000.0,026.9,020.1,10.0,0000.0,0009.46,0003.89,0003.26
2024-03-10 11:26:00,SystemResetWarning,0828.4,5.01,000.00,018.4,017.6,000.0,026.9,020.0,10.2,0000.0,0009.25,0003.97,0003.32
2024-03-10 11:27:00,SystemResetWarning,0828.4,5.01,000.00,018.3,017.6,000.0,026.9,020.0,10.3,0000.0,0009.17,0003.98,0003.34
2024-03-10 11:28:00,SystemResetWarning,0828.4,5.00,000.00,018.3,017.6,000.0,026.9,020.0,10.4,0000.0,0009.18,0004.01,0003.37
2024-03-10 11:29:00,SystemResetWarning,0828.4,5.00,000.00,018.3,017.5,000.0,026.9,020.0,10.5,0000.0,0009.22,0004.04,0003.41
2024-03-10 11:30:00,SystemResetWarning,0828.4,4.99,000.00,018.3,017.5,000.0,026.9,020.0,10.5,0000.0,0009.17,0004.01,0003.41
2024-03-10 11:31:00,SystemResetWarning,0828.4,5.00,000.00,018.3,017.5,000.0,026.9,020.0,10.4,0000.0,0008.78,0003.95,0003.38
2024-03-10 11:32:00,SystemResetWarning,0828.4,5.00,000.00,018.3,017.5,000.0,026.9,020.0,10.4,0000.0,0008.30,0003.90,0003.35
2024-03-10 11:33:00,SystemResetWarning,0828.4,5.00,000.00,018.3,017.5,000.0,026.9,020.0,10.3,0000.0,0008.32,0003.88,0003.33
2024-03-10 11:34:00,SystemResetWarning,0828.4,5.00,000.00,018.3,017.5,000.0,026.9,020.0,10.4,0000.0,0008.34,0003.88,0003.32
2024-03-10 11:35:00,SystemResetWarning,0828.5,4.99,000.00,018.3,017.5,000.0,026.9,020.0,10.4,0000.0,0008.51,0003.85,0003.31
2024-03-10 11:36:00,SystemResetWarning,0828.4,5.01,000.00,018.3,017.5,000.0,026.9,020.0,10.4,0000.0,0009.40,0003.80,0003.30
2024-03-10 11:37:00,SystemResetWarning,0828.4,5.01,000.00,018.3,017.4,000.0,026.9,020.0,10.3,0000.0,0009.27,0003.76,0003.26
2024-03-10 11:38:00,SystemResetWarning,0828.4,4.99,000.00,018.3,017.4,000.0,026.9,020.0,10.4,0000.0,0009.26,0003.72,0003.21
2024-03-10 11:39:00,SystemResetWarning,0828.3,4.99,000.00,018.2,017.4,000.0,026.9,020.0,10.1,0000.0,0009.90,0003.75,0003.21
2024-03-10 11:40:00,SystemResetWarning,0828.4,5.01,000.00,018.3,017.4,000.0,026.9,020.0,10.2,0000.0,0010.01,0003.76,0003.22
2024-03-10 11:41:00,SystemResetWarning,0828.4,5.01,000.00,018.2,017.4,000.0,026.9,020.0,10.3,0000.0,0010.05,0003.82,0003.25
2024-03-10 11:42:00,SystemResetWarning,0828.4,5.00,000.00,018.2,017.3,000.0,026.9,020.0,10.3,0000.0,0010.21,0003.92,0003.33
2024-03-10 11:43:00,SystemResetWarning,0828.4,4.99,000.00,018.2,017.3,000.0,026.9,020.0,10.3,0000.0,0010.23,0004.00,0003.41
2024-03-10 11:44:00,SystemResetWarning,0828.4,5.01,000.00,018.3,018.0,000.0,027.0,020.4,10.0,0000.0,0010.14,0004.00,0003.46
2024-03-10 11:45:00,SystemResetWarning,0828.5,5.01,000.00,018.6,018.9,000.0,027.1,020.9,09.8,0000.0,0010.19,0004.03,0003.47
2024-03-10 11:46:00,SystemResetWarning,0828.5,4.99,000.00,018.8,019.3,000.0,027.1,021.2,09.8,0000.0,0009.81,0004.02,0003.45
2024-03-10 11:47:00,SystemResetWarning,0828.4,4.98,000.00,018.9,019.1,000.0,027.1,021.0,09.7,0000.0,0008.41,0003.98,0003.40
2024-03-10 11:48:00,SystemResetWarning,0828.4,5.01,000.00,018.9,018.9,000.0,027.1,020.8,09.7,0000.0,0008.34,0003.97,0003.38
2024-03-10 11:49:00,SystemResetWarning,0828.4,5.01,000.00,018.8,018.7,000.0,027.1,020.7,09.6,0000.0,0008.60,0004.00,0003.40
2024-03-10 11:50:00,SystemResetWarning,0828.4,4.99,000.00,018.8,018.6,000.0,027.1,020.6,09.7,0000.0,0008.05,0003.96,0003.39
2024-03-10 11:51:00,SystemResetWarning,0828.4,4.99,000.00,018.8,018.4,000.0,027.1,020.6,09.6,0000.0,0007.86,0003.97,0003.42
2024-03-10 11:52:00,SystemResetWarning,0828.4,5.00,000.00,018.8,018.3,000.0,027.1,020.5,09.6,0000.0,0007.66,0003.92,0003.40
2024-03-10 11:53:00,SystemResetWarning,0828.4,5.01,000.00,018.8,018.2,000.0,027.1,020.5,09.8,0000.0,0007.90,0003.84,0003.34
2024-03-10 11:54:00,SystemResetWarning,0828.4,5.00,000.00,018.7,018.1,000.0,027.1,020.4,09.6,0000.0,0007.79,0003.75,0003.24
2024-03-10 11:55:00,SystemResetWarning,0828.4,4.99,000.00,018.7,018.1,000.0,027.1,020.4,09.4,0000.0,0007.81,0003.70,0003.19
2024-03-10 11:56:00,SystemResetWarning,0828.4,4.99,000.00,018.7,018.0,000.0,027.1,020.4,09.7,0000.0,0008.15,0003.72,0003.18
2024-03-10 11:57:00,SystemResetWarning,0828.4,5.00,000.00,018.7,018.0,000.0,027.1,020.3,09.7,0000.0,0008.13,0003.73,0003.22
2024-03-10 11:58:00,SystemResetWarning,0828.4,5.00,000.00,018.6,017.9,000.0,027.1,020.3,09.7,0000.0,0008.21,0003.79,0003.27
2024-03-10 11:59:00,SystemResetWarning,0828.4,5.00,000.00,018.6,017.9,000.0,027.1,020.3,09.8,0000.0,0008.31,0003.81,0003.34
